GW3808 Weather Reports


time (UTC)temp
C
wind
direction
speed
KPH
gust
KPH
rain 1hr
cm
rain 24hr
cm
rain mn
cm
humidity
%
barometer
mb
20260510105443 20 290 1.6 1.6 0.00 0.00 0.00 98 1009.1
20260510104443 20 289 0.0 0.0 0.00 0.00 0.00 98 1008.8
20260510103443 20 314 0.0 0.0 0.00 0.00 0.00 97 1009.1
20260510102943 20 323 0.0 0.0 0.00 0.00 0.00 97 1009.1
20260510101443 20 309 0.0 0.0 0.00 0.00 0.00 97 1009.5
20260510100443 20 311 0.0 0.0 0.00 0.00 0.00 96 1009.1
20260510095943 20 311 0.0 0.0 0.00 0.00 0.00 96 1009.1
20260510093943 20 356 0.0 0.0 0.00 0.00 0.00 97 1009.1
20260510093443 20 325 0.0 0.0 0.00 0.00 0.00 97 1009.1
20260510092443 20 332 0.0 0.0 0.00 0.00 0.00 96 1009.1
20260510091943 20 320 0.0 0.0 0.00 0.00 0.00 96 1009.1
20260510090943 20 295 0.0 0.0 0.00 0.00 0.00 96 1009.1
20260510085943 20 314 0.0 0.0 0.00 0.00 0.00 96 1009.1
20260510084943 20 323 0.0 0.0 0.00 0.00 0.00 96 1009.1
20260510082943 21 312 0.0 0.0 0.00 0.00 0.00 97 1008.8
20260510082443 21 331 0.0 0.0 0.00 0.00 0.00 97 1008.8
20260510081443 21 317 0.0 0.0 0.00 0.00 0.00 97 1008.8
20260510080443 21 315 0.0 0.0 0.00 0.00 0.00 97 1008.8
20260510075443 21 316 0.0 0.0 0.00 0.00 0.00 96 1008.8
20260510074943 21 315 0.0 0.0 0.00 0.00 0.00 96 1008.8
20260510073943 21 315 0.0 0.0 0.00 0.00 0.00 95 1008.8
20260510073443 21 315 0.0 0.0 0.00 0.00 0.00 95 1008.8
20260510071943 21 316 0.0 0.0 0.00 0.00 0.00 94 1008.8
20260510071443 22 332 0.0 0.0 0.00 0.00 0.00 94 1008.8
20260510070443 22 319 0.0 0.0 0.00 0.00 0.00 94 1008.8
20260510065443 22 306 0.0 0.0 0.00 0.00 0.00 93 1008.8
20260510064943 22 343 0.0 0.0 0.00 0.00 0.00 93 1008.8
20260510063943 22 324 0.0 0.0 0.00 0.00 0.00 93 1008.8
20260510062443 22 318 0.0 0.0 0.00 0.00 0.00 92 1008.8
20260510061446 22 322 0.0 0.0 0.00 0.00 0.00 91 1008.8
20260510060943 22 324 0.0 0.0 0.00 0.00 0.00 91 1008.8
20260510060443 22 330 0.0 0.0 0.00 0.00 0.00 91 1008.8
20260510054943 22 318 0.0 0.0 0.00 0.00 0.00 91 1008.8
20260510053943 22 330 0.0 0.0 0.00 0.00 0.00 92 1008.8
20260510052943 22 316 0.0 0.0 0.00 0.00 0.00 91 1008.8
20260510052443 22 318 0.0 0.0 0.00 0.00 0.00 90 1008.8
20260510051443 22 323 0.0 0.0 0.00 0.00 0.00 90 1008.8
20260510050943 22 307 0.0 0.0 0.00 0.00 0.00 89 1008.8
20260510050443 22 319 0.0 0.0 0.00 0.00 0.00 88 1008.8
20260510045943 23 303 0.0 0.0 0.00 0.00 0.00 88 1008.8
20260510044943 23 315 0.0 0.0 0.00 0.00 0.00 87 1008.5
20260510044443 23 321 0.0 0.0 0.00 0.00 0.00 87 1008.5
20260510043943 23 315 0.0 0.0 0.00 0.00 0.00 86 1008.5
20260510043443 23 298 0.0 0.0 0.00 0.00 0.00 86 1008.5
20260510042443 23 321 0.0 0.0 0.00 0.00 0.00 87 1008.8
20260510040943 23 315 0.0 0.0 0.00 0.00 0.00 90 1008.5
20260510040443 23 333 0.0 0.0 0.00 0.00 0.00 92 1008.1
20260510035943 23 336 0.0 0.0 0.00 0.00 0.00 94 1008.1
20260510034943 23 305 0.0 0.0 0.00 0.00 0.00 94 1008.1
20260510033943 23 312 0.0 0.0 0.00 0.00 0.00 93 1007.8
20260510033443 23 313 0.0 0.0 0.00 0.00 0.00 93 1007.8
20260510032943 23 313 0.0 0.0 0.00 0.00 0.00 93 1007.8
20260510031943 23 307 0.0 0.0 0.00 0.00 0.00 93 1007.8
20260510030943 23 292 0.0 0.0 0.00 0.00 0.00 92 1007.5
20260510030443 23 314 0.0 0.0 0.00 0.00 0.00 92 1007.5
20260510025943 23 175 0.0 0.0 0.00 0.00 0.00 91 1007.8
20260510025443 23 26 0.0 0.0 0.00 0.00 0.00 92 1007.5
20260510024443 23 290 0.0 0.0 0.00 0.00 0.00 92 1007.5
20260510023943 23 325 0.0 0.0 0.00 0.00 0.00 92 1007.5
20260510022943 23 325 0.0 0.0 0.00 0.00 0.00 92 1007.5
20260510022443 23 325 0.0 0.0 0.00 0.00 0.00 93 1007.1
20260510021443 23 324 0.0 0.0 0.00 0.00 0.00 94 1007.1
20260510020443 23 334 0.0 0.0 0.00 0.00 0.00 95 1007.1
20260510015443 23 334 0.0 0.0 0.00 0.00 0.00 95 1007.1
20260510014443 23 339 0.0 0.0 0.00 0.00 0.00 97 1007.1
20260510013943 23 335 0.0 0.0 0.00 0.00 0.00 99 1006.8
20260510012943 22 331 0.0 0.0 0.00 0.00 0.00 99 1007.1
20260510011943 22 335 0.0 0.0 0.00 0.00 0.00 99 1006.8
20260510010943 22 326 0.0 0.0 0.00 0.00 0.00 99 1006.4
20260510005943 22 325 0.0 0.0 0.00 0.00 0.00 99 1006.4
20260510004943 21 309 0.0 0.0 0.00 0.00 0.00 99 1006.4
20260510003943 21 337 0.0 0.0 0.00 0.00 0.00 99 1006.4
20260510003443 21 294 0.0 0.0 0.00 0.00 0.00 99 1006.1
20260510002943 21 333 0.0 0.0 0.00 0.00 0.00 99 1006.1
20260510001943 21 332 0.0 0.0 0.00 0.00 0.00 99 1006.1
20260510001443 21 304 0.0 0.0 0.00 0.00 0.00 99 1006.1
20260509235943 22 333 0.0 0.0 0.00 0.00 0.00 99 1005.8
20260509234943 23 334 0.0 0.0 0.00 0.00 0.00 99 1005.8
20260509233943 22 336 0.0 0.0 0.00 0.00 0.00 99 1005.8
20260509233442 22 340 0.0 0.0 0.00 0.00 0.00 99 1005.8
20260509232943 22 320 0.0 0.0 0.00 0.00 0.00 99 1005.8
20260509231943 22 316 1.6 1.6 0.00 0.00 0.00 98 1005.8
20260509230943 21 154 1.6 1.6 0.00 0.00 0.00 96 1005.8
20260509230443 22 186 1.6 1.6 0.00 0.00 0.00 95 1005.8
20260509225443 21 294 1.6 1.6 0.00 0.00 0.00 86 1005.1
20260509224443 23 239 1.6 1.6 0.00 0.00 0.00 76 1005.8
20260509223943 25 72 3.2 3.2 0.00 0.00 0.00 70 1006.4
20260509223443 29 40 1.6 1.6 0.00 0.00 0.00 62 1006.4
20260509222943 30 48 1.6 1.6 0.00 0.00 0.00 57 1006.1
20260509222443 33 139 1.6 1.6 0.00 0.00 0.00 50 1006.1
20260509221443 32 49 1.6 1.6 0.00 0.00 0.00 52 1005.4
20260509220943 33 324 1.6 1.6 0.00 0.00 0.00 52 1005.4
20260509215943 33 66 1.6 1.6 0.00 0.00 0.00 50 1005.8
20260509215443 33 255 1.6 1.6 0.00 0.00 0.00 49 1005.4
20260509214943 34 293 1.6 1.6 0.00 0.00 0.00 48 1005.8
20260509213943 35 331 1.6 1.6 0.00 0.00 0.00 47 1005.8
20260509213442 34 292 0.0 0.0 0.00 0.00 0.00 50 1005.8
20260509212443 35 345 0.0 0.0 0.00 0.00 0.00 46 1005.8
20260509211442 35 319 0.0 0.0 0.00 0.00 0.00 46 1005.8
20260509210443 35 269 1.6 1.6 0.00 0.00 0.00 47 1005.8
20260509205942 34 256 1.6 1.6 0.00 0.00 0.00 50 1006.1
20260509204442 34 61 1.6 1.6 0.00 0.00 0.00 49 1006.1
20260509203443 34 296 0.0 0.0 0.00 0.00 0.00 53 1006.4
20260509202943 34 235 1.6 1.6 0.00 0.00 0.00 51 1006.8
20260509202443 33 330 0.0 0.0 0.00 0.00 0.00 52 1006.4
20260509201443 34 348 0.0 0.0 0.00 0.00 0.00 49 1006.8
20260509200943 34 331 0.0 0.0 0.00 0.00 0.00 50 1006.8
20260509195943 34 35 0.0 0.0 0.00 0.00 0.00 49 1006.8
20260509195443 34 309 0.0 0.0 0.00 0.00 0.00 50 1006.8
20260509194443 33 47 0.0 0.0 0.00 0.00 0.00 52 1007.1
20260509193442 32 261 0.0 0.0 0.00 0.00 0.00 53 1007.1
20260509191942 34 301 0.0 0.0 0.00 0.00 0.00 51 1007.5
20260509190943 33 334 0.0 0.0 0.00 0.00 0.00 58 1007.8
20260509190443 33 319 0.0 0.0 0.00 0.00 0.00 56 1007.8
20260509185443 33 309 0.0 0.0 0.00 0.00 0.00 54 1007.8
20260509183943 32 346 0.0 0.0 0.00 0.00 0.00 60 1007.8
20260509183443 32 338 0.0 0.0 0.00 0.00 0.00 63 1007.8
20260509182443 31 38 0.0 0.0 0.00 0.00 0.00 64 1007.8
20260509181942 31 343 0.0 0.0 0.00 0.00 0.00 67 1008.1
20260509180943 31 3 0.0 0.0 0.00 0.00 0.00 64 1008.5
20260509180443 32 45 0.0 0.0 0.00 0.00 0.00 63 1008.5
20260509175942 31 301 0.0 0.0 0.00 0.00 0.00 67 1008.1
20260509174942 31 339 0.0 0.0 0.00 0.00 0.00 67 1008.5
20260509174442 31 312 0.0 0.0 0.00 0.00 0.00 66 1008.5
20260509173442 30 55 0.0 0.0 0.00 0.00 0.00 69 1008.8
20260509172943 30 184 0.0 0.0 0.00 0.00 0.00 65 1008.8
20260509172443 31 22 0.0 0.0 0.00 0.00 0.00 65 1008.8
20260509171443 31 325 1.6 1.6 0.00 0.00 0.00 67 1008.8
20260509170443 30 251 1.6 1.6 0.00 0.00 0.00 66 1008.8
20260509165443 30 307 1.6 1.6 0.00 0.00 0.00 65 1008.8
20260509164443 29 4 1.6 1.6 0.00 0.00 0.00 65 1008.8
20260509162942 29 251 1.6 1.6 0.00 0.00 0.00 70 1009.1
20260509162443 28 301 1.6 1.6 0.00 0.00 0.00 70 1008.8
20260509161443 28 297 1.6 1.6 0.00 0.00 0.00 71 1008.8
20260509160942 27 320 1.6 1.6 0.00 0.00 0.00 74 1008.5
20260509155942 26 332 0.0 0.0 0.00 0.00 0.00 81 1008.8
20260509154943 25 59 0.0 0.0 0.00 0.00 0.00 90 1008.8
20260509154442 25 129 0.0 0.0 0.00 0.00 0.00 94 1008.5
20260509153443 24 333 0.0 0.0 0.00 0.00 0.00 98 1008.8
20260509152942 23 305 0.0 0.0 0.00 0.00 0.00 99 1008.8
20260509152442 23 283 0.0 0.0 0.00 0.00 0.00 99 1008.8
20260509150942 23 309 0.0 0.0 0.00 0.00 0.00 99 1009.5
20260509150443 23 316 0.0 0.0 0.00 0.00 0.00 99 1009.5
20260509145942 22 334 0.0 0.0 0.00 0.00 0.00 99 1009.5
20260509145442 22 325 0.0 0.0 0.00 0.00 0.00 99 1009.5
20260509144942 22 308 0.0 0.0 0.00 0.00 0.00 99 1009.5
20260509143943 22 254 0.0 0.0 0.00 0.00 0.00 99 1009.5
20260509143442 22 339 0.0 0.0 0.00 0.00 0.00 99 1009.5
20260509142943 22 316 0.0 0.0 0.00 0.00 0.00 99 1009.5
20260509141943 22 333 0.0 0.0 0.00 0.00 0.00 99 1009.5
20260509141442 22 310 0.0 0.0 0.00 0.00 0.00 99 1009.5
20260509140443 22 307 0.0 0.0 0.00 0.00 0.00 99 1009.5
20260509135943 22 308 0.0 0.0 0.00 0.00 0.00 99 1008.8
20260509134442 22 311 0.0 0.0 0.00 0.00 0.00 99 1008.5
20260509133442 22 78 0.0 0.0 0.00 0.00 0.00 99 1008.8
20260509131943 22 320 0.0 0.0 0.00 0.00 0.00 99 1008.1
20260509130942 22 308 0.0 0.0 0.00 0.00 0.00 99 1008.8
20260509125943 22 287 0.0 0.0 0.00 0.00 0.00 99 1008.5
20260509124942 22 313 0.0 0.0 0.00 0.00 0.00 99 1008.5
20260509123942 22 288 0.0 0.0 0.00 0.00 0.00 99 1008.5
20260509122942 22 307 0.0 0.0 0.00 0.00 0.00 99 1008.8
20260509122443 22 324 0.0 0.0 0.00 0.00 0.00 99 1008.8
20260509120943 22 341 0.0 0.0 0.00 0.00 0.00 99 1008.8
20260509120442 22 318 0.0 0.0 0.00 0.00 0.00 99 1009.1
20260509115443 22 38 0.0 0.0 0.00 0.00 0.00 99 1009.1
20260509114442 22 255 0.0 0.0 0.00 0.00 0.00 99 1008.8
20260509113442 22 321 0.0 0.0 0.00 0.00 0.00 99 1008.8
20260509112942 22 75 0.0 0.0 0.00 0.00 0.00 99 1008.5
20260509110942 22 249 0.0 0.0 0.00 0.00 0.00 99 1007.8
20260509110442 22 330 0.0 0.0 0.00 0.00 0.00 99 1007.8
20260509105943 22 327 0.0 0.0 0.00 0.00 0.00 99 1007.8